#timestamp,LO_Frequency,Hit,StdDev 
1512320415.0,286046999.8,N
1512320415.9,286046999.8,N
1512320435.8,286047001.6,N
1512320455.6,286046999.9,N
1512320475.4,286047000.5,N
1512320495.3,286047002.3,N
1512320515.1,286046999.7,N
1512320535.8,286047001.7,N
1512320555.7,286047001.5,N
1512320575.5,286046999.7,N
1512320595.4,286046999.9,N
1512320615.2,286046998.4,N
1512320635.0,286046995.1,Y
1512320635.9,286046995.1,P
1512320655.8,286046998.8,N
1512320675.6,286046998.6,N
1512320695.4,286046998.3,N
1512320715.3,286047002.3,N
1512320735.1,286047000.5,N
1512320755.9,286047000.1,N
1512320775.7,286047004.3,N
1512320795.5,286047005.4,N
1512320815.4,286047001.4,N
1512320835.2,286047000.6,N
1512320855.0,286046998.3,N
1512320855.9,286046998.3,N
1512320875.8,286046999.4,N
1512320895.6,286046999.7,N
1512320915.5,286047001.3,N
1512320935.3,286047001.5,N
1512320955.1,286046999.8,N
1512320975.9,286047001.5,N
1512320995.7,286047001.4,N
1512321015.6,286047002.3,N
1512321035.4,286047002.0,N
1512321055.2,286047001.0,N
1512321075.1,286047000.1,N
1512321076.0,286047000.1,N
1512321095.8,286047002.5,N
1512321115.6,286047001.9,N
1512321135.5,286047001.5,N
1512321155.3,286047004.0,N
1512321175.2,286047004.3,N
1512321195.9,286047003.6,N
1512321215.7,286047005.9,Y
1512321235.6,286047003.8,P
1512321255.4,286047001.2,N
1512321275.2,286047000.3,N
1512321295.1,286046999.7,N
1512321296.0,286046999.7,N
1512321315.8,286047000.4,N
1512321335.7,286047000.9,N
1512321355.5,286046998.7,N
1512321375.3,286047000.0,N
1512321395.2,286047001.0,N
1512321415.0,286047001.2,N
1512321415.9,286047001.2,N
1512321435.8,286046999.7,N
1512321455.6,286047002.7,N
1512321475.4,286047000.9,N
1512321495.3,286047002.0,N
1512321515.1,286047000.0,N
1512321535.8,286047000.1,N
1512321555.7,286047002.1,N
1512321575.5,286047000.9,N
1512321595.4,286047000.0,N
1512321615.2,286047002.1,N
1512321635.0,286047003.9,Y
1512321635.9,286047003.9,P
1512321655.8,286046999.9,N
1512321675.6,286047002.0,N
1512321695.4,286047004.1,N
1512321715.3,286047002.2,N
1512321735.1,286047004.4,N
1512321755.9,286047002.8,N
1512321775.7,286047000.6,N
1512321795.5,286047002.8,N
1512321815.4,286047004.2,N
1512321835.2,286047002.6,N
1512321855.0,286047002.8,N
1512321855.9,286047002.8,N
1512321875.8,286047005.5,Y
1512321895.6,286047002.0,P
1512321915.5,286047000.9,P
1512321935.3,286046999.9,N
1512321955.1,286047002.5,N
1512321975.9,286047003.6,Y
1512321995.7,286047002.3,P
1512322015.6,286047001.9,P
1512322035.4,286047002.3,P
1512322055.2,286047001.2,Y
1512322075.1,286046999.1,P
1512322076.0,286046999.1,N
1512322095.8,286046999.0,N
1512322115.6,286047000.7,N
1512322135.5,286046997.7,N
1512322155.3,286046997.0,N
1512322175.2,286046997.0,N
1512322195.9,286046993.7,Y
1512322215.7,286046993.5,P
1512322235.6,286046993.3,N
1512322255.4,286046996.2,N
1512322275.2,286046995.6,N
1512322295.1,286046995.6,N
1512322296.0,286046995.6,N
1512322315.8,286046995.9,N
1512322335.7,286046993.8,Y
1512322355.5,286046996.9,P
1512322375.3,286046995.5,P
1512322395.2,286046997.5,P
1512322415.0,286046999.5,N
1512322415.9,286046999.5,N
1512322435.8,286046998.2,N
1512322455.6,286046999.9,N
1512322475.4,286047002.6,N
1512322495.3,286047002.5,N
1512322515.1,286047002.7,N
1512322535.8,286047002.5,N
1512322555.7,286047003.8,N
1512322575.5,286047004.6,N
1512322595.4,286047007.4,N
1512322615.2,286047001.9,N
1512322635.0,286046998.1,N
1512322635.9,286046998.1,N
1512322655.8,286047002.7,N
1512322675.6,286047001.2,N
1512322695.4,286046996.6,N
1512322715.3,286046996.6,N
1512322735.1,286046998.2,N
1512322755.9,286047000.4,N
1512322775.7,286047003.4,N
1512322795.5,286047003.7,N
1512322815.4,286047003.7,N
1512322835.2,286047000.4,N
1512322855.0,286047000.0,N
1512322856.0,286047000.0,N
1512322875.8,286046998.2,N
1512322895.6,286046995.6,N
1512322915.5,286046995.9,N
1512322935.3,286046999.4,N
1512322955.1,286046998.6,N
1512322975.9,286046999.3,N
1512322995.7,286047001.2,N
1512323015.6,286046999.9,N
1512323035.4,286047002.0,N
1512323055.2,286047003.2,N
1512323075.1,286047004.1,N
1512323076.0,286047004.1,N
1512323095.8,286047004.6,N
1512323115.6,286047005.6,N
1512323135.5,286047005.4,N
1512323155.3,286047005.8,N
1512323175.2,286047003.3,N
1512323195.9,286047002.9,N
1512323215.7,286047007.1,N
1512323235.6,286047004.5,N
1512323255.4,286047003.1,N
1512323275.2,286047003.6,N
1512323295.1,286047004.2,N
1512323296.0,286047004.2,N
1512323315.8,286047005.7,N
1512323335.7,286047007.5,N
1512323355.5,286047011.9,Y
1512323375.3,286047000.8,P
1512323395.2,286047001.1,N
1512323415.0,286046998.7,N
1512323435.0,286047001.1,N
1512323435.9,286047001.1,N
1512323455.8,286046998.3,N
1512323475.6,286046996.6,N
1512323495.4,286047000.6,N
1512323515.3,286047002.1,N
1512323535.1,286047000.5,N
1512323555.8,286046998.9,N
1512323575.7,286046994.9,Y
1512323595.5,286046993.5,P
1512323615.4,286046993.4,N
1512323635.2,286046997.5,N
1512323655.0,286046997.7,N
1512323655.9,286046997.7,N
1512323675.8,286046993.4,N
1512323695.6,286046996.8,N
1512323715.5,286046999.4,N
1512323735.3,286046999.6,N
1512323755.1,286046999.2,N
1512323775.9,286046999.7,N
1512323795.7,286047000.9,N
1512323815.5,286047001.6,N
1512323835.4,286047004.2,N
1512323855.2,286046999.8,N
1512323875.1,286046999.0,N
1512323876.0,286046999.0,N
1512323895.8,286047001.2,N
1512323915.6,286046998.5,N
1512323935.5,286047000.0,N
1512323955.3,286046999.8,N
1512323975.1,286047002.7,N
1512323995.9,286047002.4,N
